Tracking 25701 objects as of 4-Jul-2022
HD Live streaming from Space Station
objects crossing your sky now

FENGYUN 1C DEB

Track FENGYUN 1C DEB now!
10-day predictions


NORAD ID: 30542
Int'l Code: 1999-025AKG
Perigee: 860.4 km
Apogee: 899.9 km
Inclination: 98.9 °
Period: 102.4 minutes
Semi major axis: 7251 km
RCS: 0.0234 m2 (small)
Launch date: May 10, 1999
Source: People's Republic of China (PRC)
Launch site: Taiyaun Space Center, China (TSC)

Note: This is SATELLITE DEBRIS
aabbcc
Your satellite tracking list
Your tracking list is empty




NASA's NSSDC Master Catalog

Two Line Element Set (TLE):
1 30542U 99025AKG 22184.60658984 -.00000083  00000-0 -23602-4 0  9992
2 30542  98.9394 223.4201 0027252 260.6753 253.1060 14.06019137792332
Source of the keplerian elements: AFSPC